Regional Weather Roundup
Issued by NWS

Home | Current Version | Previous Version | Graphics & Text | Print | Product List | Glossary On
Versions: 1 2 3 4 5 6 7 8 9 10 11 12 13 14 15 16 17 18 19 20 21 22 23 24 25 26 27 28 29 30 31 32 33 34 35 36 37 38 39 40 41 42 43 44 45 46 47 48 49 50
286
ASUS45 KSLC 171810
RWRUT

UTAH REGIONAL WEATHER ROUNDUP
NATIONAL WEATHER SERVICE SALT LAKE CITY UT
1100 AM MST SAT FEB 17 2018

UTZ001>011-023>025-171900-

NORTHERN UTAH

CITY           SKY/WX    TMP DP  RH WIND       PRES   REMARKS
BRIGHAM CITY   SUNNY     44  16  32 S13G20    30.16F
HILL AFB       SUNNY     43  19  37 S10       30.16F
LOGAN          MOSUNNY   49  20  31 SW9       30.14F
OGDEN          SUNNY     45  19  35 S15       30.16F
SALT LAKE CITY SUNNY     47  17  30 S16       30.18F
TOOELE VALLEY  SUNNY     45  21  39 S7        30.18F
WENDOVER       NOT AVBL
HEBER CITY       N/A     34  19  55 CALM      30.19F
WEST JORDAN    SUNNY     42  20  42 S17       30.18F

$$

UTZ011>015-024>027-171900-

CENTRAL/NORTHEAST UTAH

CITY           SKY/WX    TMP DP  RH WIND       PRES   REMARKS
PROVO AIRPORT  SUNNY     40  17  39 SE8       30.24F WCI  34
MOAB/CANYONLAN SUNNY     41  22  46 NE5       30.25S
DELTA          SUNNY     36  19  51 CALM      30.22F
PRICE          SUNNY     37  11  34 VRB5      30.23S WCI  33
RICHFIELD      SUNNY     39  16  38 CALM      30.23F
ROOSEVELT      SUNNY     37   9  30 CALM      30.23F
VERNAL         SUNNY     38  12  34 VRB3      30.20F

$$

UTZ013>016-019>022-027-171900-

SOUTHERN UTAH

CITY           SKY/WX    TMP DP  RH WIND       PRES   REMARKS
BRYCE CANYON   SUNNY     41  15  35 CALM      30.24S
CEDAR CITY     SUNNY     44  22  41 CALM      30.20S
MILFORD        SUNNY     45  13  27 S13       30.19F
ST GEORGE      CLEAR     42  29  59 CALM      30.26F
HANKSVILLE     SUNNY     36  18  48 CALM      30.29S
KANAB          SUNNY     45  18  33 CALM      30.27F
BLANDING         N/A     40  17  39 S3        30.33F

$$

REGIONAL REPORTS     COLORADO/ARIZONA

CITY           SKY/WX    TMP DP  RH WIND       PRES   REMARKS
CRAIG, CO      SUNNY     26  12  55 SE3       30.21S
GRAND JUNCTION SUNNY     39  21  48 CALM      30.26F
RIFLE, CO      SUNNY     30  17  58 SE3       30.26F
MONTROSE, CO   SUNNY     36  21  54 CALM      30.28F
CORTEZ, CO     SUNNY     42  16  34 S3        30.25F
COLORADO CITY    N/A     46  32  57 SE5       30.26F
PAGE, AZ       SUNNY     41  24  51 CALM      30.25F
GRAND CANYON   SUNNY     49  12  22 MISG      30.26R
KINGMAN, AZ    SUNNY     51  25  36 CALM      30.23S
FLAGSTAFF, AZ  SUNNY     45  21  38 NE5       30.26R

$$

REGIONAL REPORTS    NEVADA/IDAHO/WYOMING

CITY           SKY/WX    TMP DP  RH WIND       PRES   REMARKS
LAS VEGAS, NV  SUNNY     54  15  21 CALM      30.23S
ELY, NY        SUNNY     42  20  41 S8        30.19F
ELKO, NV       SUNNY     43  22  43 SW7       30.13F
POCATELLO, ID  PTSUNNY   42  25  50 S17G23    30.08F
BURLEY, ID     SUNNY     45  21  38 SW13      30.07F
EVANSTON, WY   SUNNY     34  17  50 SW23      30.12S WCI  22
ROCK SPRINGS,  MOSUNNY   32  13  45 SW21G33   30.08F WCI  20

$$




USA.gov is the U.S. government's official web portal to all federal, state and local government web resources and services.